This is the latest recevied weather packets stored in our database for station/object SV9TNF-56. If no packets are shown the sender has not sent any weather packets the latest 10 day(s).
| Time | Temp. | Humidity | Pressure | Rain* | Wind** | Luminosity | Snow |
|---|---|---|---|---|---|---|---|
| 1788515979 | 26.11° C | 59% | 1010.8 hPa | 0 mm | 12.96 m/s, 190° | - | - |
| 1788515679 | 25.56° C | 61% | 1011.2 hPa | 0 mm | 30.4 m/s, 210° | - | - |
| 1788515379 | 25.56° C | 63% | 1011.2 hPa | 0 mm | 22.8 m/s, 287° | - | - |
| 1788515079 | 25.56° C | 64% | 1011.2 hPa | 0 mm | 38.45 m/s, 247° | - | - |
| 1788514779 | 25.56° C | 65% | 1011.2 hPa | 0 mm | 15.2 m/s, 275° | - | - |
| 1788514479 | 25.56° C | 67% | 1011.2 hPa | 0 mm | 30.4 m/s, 342° | - | - |
| 1788514179 | 25.56° C | 67% | 1011.5 hPa | 0 mm | 26.82 m/s, 290° | - | - |
| 1788513879 | 25.56° C | 68% | 1011.2 hPa | 0 mm | 24.59 m/s, 323° | - | - |
| 1788513578 | 26.11° C | 69% | 1011.2 hPa | 0 mm | 20.56 m/s, 59° | - | - |
| 1788513279 | 25.56° C | 69% | 1011.2 hPa | 0 mm | 22.35 m/s, 318° | - | - |
| 1788512978 | 25.56° C | 70% | 1010.8 hPa | 0 mm | 25.93 m/s, 239° | - | - |
| 1788512678 | 25.56° C | 71% | 1010.8 hPa | 0 mm | 38.45 m/s, 288° | - | - |
| 1788512378 | 25.56° C | 71% | 1011.2 hPa | 0 mm | 42.02 m/s, 276° | - | - |
| 1788512078 | 25.56° C | 71% | 1011.2 hPa | 0 mm | 25.48 m/s, 340° | - | - |
| 1788511778 | 25.56° C | 70% | 1011.2 hPa | 0 mm | 30.4 m/s, 281° | - | - |
| 1788511478 | 25.56° C | 70% | 1011.5 hPa | 0 mm | 30.4 m/s, 265° | - | - |
| 1788511178 | 25.56° C | 70% | 1011.2 hPa | 0 mm | 33.53 m/s, 290° | - | - |
| 1788510878 | 25.56° C | 71% | 1011.2 hPa | 0 mm | 15.2 m/s, 262° | - | - |
| 1788510578 | 25.56° C | 71% | 1011.2 hPa | 0 mm | 29.95 m/s, 316° | - | - |
| 1788510277 | 25.56° C | 71% | 1011.2 hPa | 0 mm | 25.48 m/s, 276° | - | - |
| 1788509977 | 25° C | 72% | 1011.2 hPa | 0 mm | 27.72 m/s, 6° | - | - |
| 1788509677 | 25° C | 72% | 1011.2 hPa | 0 mm | 41.57 m/s, 269° | - | - |
| 1788509377 | 25° C | 73% | 1010.8 hPa | 0 mm | 12.52 m/s, 283° | - | - |
| 1788509077 | 25° C | 73% | 1010.8 hPa | 0 mm | 32.63 m/s, 312° | - | - |
| 1788508777 | 25° C | 73% | 1010.8 hPa | 0 mm | 21.9 m/s, 259° | - | - |
* Rain latest hour (hover to see other rain measurements)
** Current wind speed in m/s (hover to see current wind gust speed)